SCP
0 0 0 0 0 0 0 0 0 0 0 0 0 0 0 0 0 0 0 0 0 0 0 0 0 0 0 0 0 0 0 0 0 0 0 0 0 0 0 0 0 0 0 0
0 0 0 0 0 0 0 0 0 0 0 0 0 0 0 0 0 0 0 0 0 0 0 0 0 0 0 0 0 0 0 0 0 0 0 0 0 0 0 0 0 0 0 0
0 0 0 0 0 0 0 0 0 0 0 0 0 0 0 0 0 0 0 0 0 0 0 0 0 0 0 0 0 0 0 0 0 0 0 0 0 0 0 0 0 0 0 0
0 0 0 0 0 0 0 0 0 0 0 0 0 0 0 0 0 0 0 0 0 0 0 0 0 0 0 0 0 0 0 0 0 0 0 0 0 0 0 0 0 0 0 0
0 0 0 0 0 0 0 0 0 0 0 0 0 0 0 0 0 0 0 0 0 0 0 0 0 0 0 0 0 0 0 0 0 0 0 0 0 0 0 0 0 0 0 0
0 0 0 0 0 0 0 0 0 0 0 0 0 0 0 0 0 0 0 0 0 0 0 0 0 0 0 0 0 0 0 0 0 0 0 0 0 0 0 0 0 0 0 0
0 0 0 0 0 0 0 0 0 0 0 0 0 0 0 0 0 0 0 0 0 0 0 0 0 0 0 0 0 0 0 0 0 0 0 0 0 0 0 0 0 0 0 0
0 0 0 0 0 0 0 0 0 0 0 0 0 0 0 0 0 0 0 0 0 0 0 0 0 0 0 0 0 0 0 0 0 0 0 0 0 0 0 0 0 0 0 0
0 0 0 0 0 0 0 0 0 0 0 0 0 0 0 0 0 0 0 0 0 0 0 0 0 0 0 0 0 0 0 0 0 0 0 0 0 0 0 0 0 0 0 0
0 0 0 0 0 0 0 0 0 0 0 0 0 0 0 0 0 0 0 0 0 0 0 0 0 0 0 0 0 0 0 0 0 0 0 0 0 0 0 0 0 0 0 0
0 0 0 0 0 0 0 0 0 0 0 0 0 0 0 0 0 0 0 0 0 0 0 0 0 0 0 0 0 0 0 0 0 0 0 0 0 0 0 0 0 0 0 0
0 0 0 0 0 0 0 0 0 0 0 0 0 0 0 0 0 0 0 0 0 0 0 0 0 0 0 0 0 0 0 0 0 0 0 0 0 0 0 0 0 0 0 0
0 0 0 0 0 0 0 0 0 0 0 0 0 0 0 0 0 0 0 0 0 0 0 0 0 0 0 0 0 0 0 0 0 0 0 0 0 0 0 0 0 0 0 0
0 0 0 0 0 0 0 0 0 0 0 0 0 0 0 0 0 0 0 0 0 0 0 0 0 0 0 0 0 0 0 0 0 0 0 0 0 0 0 0 0 0 0 0
0 0 0 0 0 0 0 0 0 0 0 0 0 0 0 0 0 0 0 0 0 0 0 0 0 0 0 0 0 0 0 0 0 0 0 0 0 0 0 0 0 0 0 0
0 0 0 0 0 0 0 0 0 0 0 0 0 0 0 0 0 0 0 0 0 0 0 0 0 0 0 0 0 0 0 0 0 0 0 0 0 0 0 0 0 0 0 0
0 0 0 0 0 0 0 0 0 0 0 0 0 0 0 0 0 0 0 0 0 0 0 0 0 0 0 0 0 0 0 0 0 0 0 0 0 0 0 0 0 0 0 0
0 0 0 0 0 0 0 0 0 0 0 0 0 0 0 0 0 0 0 0 0 0 0 0 0 0 0 0 0 0 0 0 0 0 0 0 0 0 0 0 0 0 0 0
0 0 0 0 0 0 0 0 0 0 0 0 0 0 0 0 0 0 0 0 0 0 0 0 0 0 0 0 0 0 0 0 0 0 0 0 0 0 0 0 0 0 0 0
0 0 0 0 0 0 0 0 0 0 0 0 0 0 0 0 0 0 0 0 0 0 0 0 0 0 0 0 0 0 0 0 0 0 0 0 0 0 0 0 0 0 0 0
0 0 0 0 0 0 0 0 0 0 0 0 0 0 0 0 0 0 0 0 0 0 0 0 0 0 0 0 0 0 0 0 0 0 0 0 0 0 0 0 0 0 0 0
0 0 0 0 0 0 0 0 0 0 0 0 0 0 0 0 0 0 0 0 0 0 0 0 0 0 0 0 0 0 0 0 0 0 0 0 0 0 0 0 0 0 0 0
0 0 0 0 0 0 0 0 0 0 0 0 0 0 0 0 0 0 0 0 0 0 0 0 0 0 0 0 0 0 0 0 0 0 0 0 0 0 0 0 0 0 0 0
0 0 0 0 0 0 0 0 0 0 0 0 0 0 0 0 0 0 0 0 0 0 0 0 0 0 0 0 0 0 0 0 0 0 0 0 0 0 0 0 0 0 0 0
0 0 0 0 0 0 0 0 0 0 0 0 0 0 0 0 0 0 0 0 0 0 0 0 0 0 0 0 0 0 0 0 0 0 0 0 0 0 0 0 0 0 0 0
0 0 0 0 0 0 0 0 0 0 0 0 0 0 0 0 0 0 0 0 0 0 0 0 0 0 0 0 0 0 0 0 0 0 0 0 0 0 0 0 0 0 0 0
0 0 0 0 0 0 0 0 0 0 0 0 0 0 0 0 0 0 0 0 0 0 0 0 0 0 0 0 0 0 0 0 0 0 0 0 0 0 0 0 0 0 0 0
Wind_Speed
4 3 2 2 4 5 5 3 3 1 2 2 2 2 2 3 4 6 7 9 9 9 8 7 7 7 7 8 8 8 9 9 10 9 9 9 9 9 10 10 11 10 10 10
4 4 4 7 7 7 6 5 5 4 5 3 3 4 4 3 3 5 7 9 10 9 9 7 6 5 6 7 7 7 8 8 8 8 9 8 9 9 10 10 10 10 10 10
2 3 6 8 9 12 8 8 7 7 4 6 6 5 4 3 4 5 6 8 9 9 9 7 6 5 5 6 6 7 8 8 8 8 8 8 8 9 9 9 10 10 10 9
3 4 5 5 3 7 9 9 10 7 5 7 6 4 5 5 5 5 6 7 8 9 8 7 5 4 3 3 4 6 7 7 7 7 7 7 7 8 8 8 8 8 8 8
3 4 5 3 6 7 9 8 13 13 10 9 6 5 7 7 6 5 5 6 7 7 7 7 6 5 4 3 4 5 6 7 7 7 6 7 7 8 8 7 7 7 7 8
4 5 3 3 7 7 6 7 10 15 14 11 10 7 5 6 5 4 4 5 6 6 6 6 6 5 4 4 4 5 5 6 6 6 6 6 7 7 7 6 6 6 7 8
7 6 5 4 9 10 7 0 9 15 15 14 13 5 6 6 5 3 3 3 4 5 4 5 5 5 5 5 5 4 4 4 5 5 6 6 6 6 6 6 6 7 7 7
6 6 3 11 12 11 5 4 8 14 15 14 11 7 6 6 5 4 3 2 3 4 3 3 4 5 5 6 4 3 3 4 5 5 5 5 5 6 6 6 6 6 7 7
7 4 4 14 11 8 4 7 9 13 14 14 12 11 9 7 6 4 3 2 2 3 3 2 4 5 5 4 2 3 4 4 4 5 5 4 5 5 5 5 5 6 6 6
8 9 8 13 13 9 8 8 8 12 14 14 14 12 10 8 7 6 5 3 2 3 2 2 3 3 3 2 1 3 3 3 3 3 4 4 3 4 4 5 5 6 6 6
9 8 6 11 16 16 12 10 9 12 14 15 14 12 11 9 8 6 5 4 4 3 2 2 2 2 2 1 2 4 4 3 2 2 2 2 3 3 4 5 6 6 6 6
7 5 6 4 8 17 17 15 13 14 15 15 14 13 12 9 8 7 6 6 5 4 3 2 1 1 1 0 3 4 4 3 2 1 1 0 1 2 2 1 3 4 6 7
6 1 4 2 3 12 18 17 15 16 16 15 14 12 12 10 9 8 7 7 6 5 4 3 2 1 0 1 3 4 4 3 2 2 1 1 1 1 1 4 4 3 4 6
10 6 6 7 6 10 15 17 15 16 16 15 14 13 12 11 10 10 9 8 7 6 5 4 4 3 1 2 3 4 4 3 3 3 2 2 1 1 1 2 1 2 4 5
12 14 11 4 5 9 13 15 15 16 16 16 14 13 13 13 12 11 9 8 7 7 6 6 5 4 3 3 4 4 4 4 4 3 3 2 2 1 1 0 1 1 1 4
8 11 13 12 10 11 14 17 17 18 17 17 15 15 14 13 12 10 9 9 9 9 7 7 6 5 4 4 4 4 4 3 4 4 4 3 3 2 2 1 1 0 1 2
9 10 12 15 16 15 17 18 18 18 18 18 17 16 15 13 12 11 11 10 10 8 7 7 6 5 5 5 5 4 4 5 7 6 5 4 3 3 3 2 2 1 1 2
15 15 13 14 15 16 17 18 18 18 18 18 17 16 16 15 15 14 12 11 10 9 9 9 7 7 7 6 5 4 4 4 5 5 4 4 4 4 4 3 3 3 2 4
16 17 16 15 14 14 15 16 17 17 17 16 17 17 17 16 15 14 12 12 11 11 10 10 9 9 8 7 5 5 5 5 5 5 5 5 5 6 5 5 5 4 4 4
16 15 16 16 15 14 14 14 14 15 15 16 17 17 17 16 15 14 13 12 11 9 8 7 10 10 9 8 8 6 6 6 5 5 5 5 6 6 6 6 6 5 5 5
17 16 14 14 14 14 13 13 13 14 15 16 17 18 17 16 15 14 12 11 11 10 9 9 8 8 8 7 9 7 6 6 6 5 5 5 6 6 6 6 6 6 6 6
18 16 14 13 13 13 12 11 12 13 14 15 17 16 16 16 15 14 14 10 8 10 9 9 9 9 9 9 8 7 7 7 6 5 5 5 6 6 6 6 6 6 6 6
17 17 15 12 11 11 10 9 11 11 13 14 16 16 16 13 11 11 11 10 8 11 9 8 9 12 13 10 8 8 8 8 7 6 6 6 6 6 6 6 6 6 6 6
18 18 16 14 10 7 6 6 6 7 9 10 11 13 13 11 10 9 8 8 10 12 10 9 12 14 15 10 9 9 8 8 7 7 7 6 6 6 6 6 6 6 6 8
17 17 17 16 12 9 8 5 2 3 5 5 7 8 8 7 7 7 7 8 10 10 8 10 14 15 12 10 10 9 9 8 7 7 7 6 7 7 6 6 6 6 6 7
14 13 13 13 12 10 9 7 4 2 0 2 3 3 4 4 5 5 5 7 10 10 8 7 9 12 11 10 10 10 9 8 8 8 9 8 8 8 7 7 9 7 7 7
10 10 10 11 11 12 11 9 8 7 5 3 2 2 1 2 3 4 5 5 6 7 7 7 7 8 9 9 9 9 9 8 8 8 8 8 8 8 8 9 8 7 7 7
Wind_Direction
99 120 186 221 207 210 239 274 275 210 226 216 189 219 279 307 322 337 349 356 359 357 0 7 13 17 25 23 19 19 25 30 30 33 37 36 39 37 37 37 38 35 36 35
178 196 241 254 235 222 231 232 235 237 235 201 192 214 239 258 298 324 343 349 352 352 355 360 5 8 22 26 21 21 28 31 30 31 36 36 36 34 34 36 36 34 32 33
205 194 257 251 224 209 213 212 215 221 200 172 196 213 232 250 277 309 332 339 345 349 352 350 349 351 11 20 15 21 29 32 31 30 31 29 31 32 30 32 33 31 29 27
265 239 254 88 102 199 217 223 215 222 193 192 202 207 230 245 262 289 318 332 342 344 349 351 346 339 358 3 10 23 31 32 30 28 29 30 31 30 28 30 34 31 26 21
263 275 277 187 185 192 212 237 212 211 205 197 197 219 223 218 236 271 306 321 331 337 339 350 360 349 339 12 18 28 34 33 30 30 32 31 29 27 25 23 28 32 31 22
248 271 264 120 149 173 208 246 198 198 198 190 189 213 172 167 207 247 288 316 331 333 342 1 5 353 348 14 29 40 42 42 38 36 38 34 30 23 24 24 25 28 33 27
243 262 265 128 147 169 213 350 163 186 190 187 197 199 125 159 197 233 275 310 320 329 349 3 355 347 3 30 46 58 62 55 49 46 46 39 32 28 23 26 26 28 31 33
215 235 247 144 164 202 229 106 172 183 185 188 193 183 168 188 204 221 243 281 317 329 352 4 357 346 13 37 53 92 99 78 66 55 46 48 42 32 28 24 30 27 23 29
226 257 65 177 198 210 219 194 184 184 183 186 189 189 194 200 205 213 230 249 298 322 330 356 12 358 9 39 84 136 131 106 88 80 64 46 40 36 33 29 25 22 21 20
254 256 233 213 220 215 213 212 193 186 183 187 191 192 196 199 201 207 216 222 249 277 306 13 22 13 5 22 171 168 145 127 119 91 85 75 43 32 30 25 20 19 17 13
249 261 241 226 221 214 207 209 196 190 188 190 193 194 196 199 201 206 207 206 222 250 294 335 354 16 26 9 200 180 164 159 140 107 82 68 68 36 19 39 21 0 7 6
242 238 219 212 201 204 202 202 197 191 191 195 197 196 197 200 198 201 204 205 213 224 236 253 309 356 38 343 216 201 184 177 175 162 155 9 38 129 147 1 51 34 23 3
269 303 244 253 219 199 200 201 198 196 195 194 199 201 199 199 197 200 204 209 214 219 229 241 251 271 20 245 223 217 204 189 191 206 206 238 307 342 84 157 169 116 68 41
234 230 231 224 218 199 200 199 197 200 200 198 198 199 201 200 198 203 208 208 209 214 223 232 244 242 236 248 225 218 211 190 211 212 229 244 271 322 350 5 78 126 124 92
224 222 234 233 206 193 196 195 197 201 201 201 198 198 200 201 203 206 206 201 203 216 222 228 236 229 215 241 234 220 211 202 207 219 222 234 237 238 232 238 36 58 79 120
233 223 231 232 223 202 196 199 202 204 201 200 199 201 203 206 207 205 199 195 205 216 220 225 232 222 211 230 229 223 213 201 231 226 220 220 221 223 217 215 221 151 62 48
239 228 221 224 223 214 206 206 208 207 203 203 202 202 202 204 205 206 203 202 213 222 222 225 229 212 212 226 231 227 221 192 201 231 230 228 229 228 222 222 230 226 174 93
256 256 244 235 227 219 213 211 212 211 208 205 201 201 201 203 207 209 208 205 209 219 225 225 223 212 214 219 228 240 235 229 222 227 227 227 230 226 223 223 223 224 208 169
279 267 259 250 243 231 220 212 211 212 208 203 201 203 204 207 210 211 208 204 209 220 222 214 205 215 216 212 220 228 238 239 236 233 230 216 227 230 223 223 224 221 218 208
302 283 267 255 241 232 226 216 209 207 205 202 202 204 206 208 209 210 208 210 215 220 217 194 194 209 214 206 206 228 230 237 243 242 236 232 228 227 223 223 227 226 221 219
322 307 283 261 245 232 225 216 206 203 200 200 203 205 206 207 207 207 207 216 220 215 206 188 201 203 206 195 199 225 229 233 240 245 243 238 236 232 230 227 225 227 227 223
333 324 308 282 257 240 226 217 209 203 197 199 204 205 205 207 206 208 211 218 217 184 190 197 205 201 192 190 209 218 224 231 238 242 243 244 243 240 235 234 233 230 229 226
341 336 329 313 285 260 238 222 214 206 201 200 201 203 205 205 203 204 211 210 207 185 194 201 197 184 180 199 214 216 222 228 235 239 240 243 244 245 245 242 240 237 234 229
347 346 344 338 325 301 266 245 230 218 210 206 206 206 205 204 206 212 219 187 187 184 201 199 189 185 190 209 213 217 222 226 231 238 242 244 246 246 246 247 246 243 239 235
346 347 350 350 351 347 337 326 272 219 208 204 203 203 210 211 209 201 202 199 183 186 203 196 193 193 199 211 213 217 222 224 230 236 238 242 246 248 249 251 251 251 248 241
343 343 342 344 349 346 346 350 356 2 180 176 174 183 196 200 210 203 197 196 194 197 204 194 187 193 206 211 214 218 223 221 218 227 238 243 248 249 250 253 257 255 255 251
338 341 340 341 346 348 346 349 356 3 7 13 55 86 140 172 183 191 195 194 191 196 203 202 196 197 203 208 214 217 220 223 225 227 231 236 242 247 250 252 255 256 255 252